Graham, TX

7:40 AM CST on February 24, 2017 (GMT -0600)
Graham

Weather History for KRPH - October, 2012

Change the Weather History Date:

Sunday, October 14, 2012

  Actual Average (KMWL) Record (KMWL)
Temperature  
Mean Temperature 64 °F -  
Max Temperature 78 °F 76 °F 97 °F (2015)
Min Temperature 51 °F 53 °F 42 °F (1997)
Growing Degree Days 14 (Base 50)    
Moisture  
Dew Point 45 °F    
Average Humidity 51    
Maximum Humidity 88    
Minimum Humidity 24    
Precipitation  
Precipitation 0.00 in - - ()
Sea Level Pressure  
Sea Level Pressure 30.05 in    
Wind  
Wind Speed 6 mph (NW)    
Max Wind Speed 18 mph    
Max Gust Speed 23 mph    
Visibility 10 miles    
Events      
Averages and records for this station are not official NWS values.
T = Trace of Precipitation, MM = Missing Value Source: NWS Daily Summary

Daily Weather History Graph

Daily Weather History Graph

Search for Another Location

Airport or City:

Trip Planner

Search our weather history database for the weather conditions in past years. The results will help you decide how hot, cold, wet, or windy it might be!

Date:

Astronomy

Oct. 14, 2012 Rise Set
Actual Time 7:38 AM CDT 7:01 PM CDT
Civil Twilight 7:13 AM CDT 7:26 PM CDT
Nautical Twilight 6:44 AM CDT 7:55 PM CDT
Astronomical Twilight 6:15 AM CDT 8:23 PM CDT
Moon 6:39 AM CDT (10/14) 6:23 PM CDT (10/14)
Length of Visible Light 12h 13m
Length of Day
11h 23m
Waning Crescent, 1% of the Moon is Illuminated
Oct 14
Waning Crescent
Oct 15
New
Oct 21
First Quarter
Oct 29
Full
Nov 6
Last Quarter

Hourly Weather History & Observations

Time (CDT) Temp. Dew Point Humidity Pressure Visibility Wind Dir Wind Speed Gust Speed Precip Events Conditions
12:15 AM 66.2 °F 50.0 °F 56% 29.88 in 10.0 mi SW 6.9 mph - N/A   Clear
12:35 AM 64.4 °F 50.0 °F 59% 29.88 in 10.0 mi WSW 6.9 mph - N/A   Clear
12:55 AM 64.4 °F 46.4 °F 52% 29.87 in 10.0 mi West 11.5 mph - N/A   Clear
1:15 AM 66.2 °F 44.6 °F 46% 29.87 in 10.0 mi West 11.5 mph - N/A   Clear
1:35 AM 66.2 °F 42.8 °F 43% 29.87 in 10.0 mi West 10.4 mph - N/A   Clear
1:55 AM 64.4 °F 42.8 °F 45% 29.88 in 10.0 mi West 6.9 mph - N/A   Clear
2:15 AM 64.4 °F 41.0 °F 42% 29.89 in 10.0 mi West 6.9 mph - N/A   Clear
2:55 AM 64.4 °F 41.0 °F 42% 29.92 in 10.0 mi WNW 8.1 mph - N/A   Clear
3:15 AM 62.6 °F 41.0 °F 45% 29.93 in 10.0 mi West 5.8 mph - N/A   Clear
3:35 AM 62.6 °F 41.0 °F 45% 29.94 in 10.0 mi West 4.6 mph - N/A   Clear
3:55 AM 62.6 °F 41.0 °F 45% 29.94 in 10.0 mi West 3.5 mph - N/A   Clear
4:15 AM 62.6 °F 41.0 °F 45% 29.94 in 10.0 mi West 3.5 mph - N/A   Clear
4:35 AM 62.6 °F 41.0 °F 45% 29.95 in 10.0 mi Calm Calm - N/A   Clear
4:55 AM 55.4 °F 42.8 °F 63% 29.96 in 10.0 mi SSE 4.6 mph - N/A   Clear
5:15 AM 55.4 °F 42.8 °F 63% 29.97 in 10.0 mi Calm Calm - N/A   Clear
5:35 AM 55.4 °F 41.0 °F 58% 29.98 in 10.0 mi SSE 3.5 mph - N/A   Clear
5:55 AM 53.6 °F 42.8 °F 67% 29.99 in 10.0 mi Calm Calm - N/A   Clear
6:15 AM 53.6 °F 42.8 °F 67% 29.99 in 10.0 mi West 3.5 mph - N/A   Clear
6:35 AM 55.4 °F 42.8 °F 63% 30.00 in 10.0 mi WSW 3.5 mph - N/A   Clear
6:55 AM 51.8 °F 44.6 °F 76% 30.01 in 10.0 mi Calm Calm - N/A   Clear
7:15 AM 51.8 °F 42.8 °F 71% 30.02 in 10.0 mi Calm Calm - N/A   Clear
7:35 AM 51.8 °F 44.6 °F 76% 30.03 in 10.0 mi WSW 3.5 mph - N/A   Clear
7:55 AM 53.6 °F 42.8 °F 67% 30.04 in 10.0 mi Calm Calm - N/A   Clear
8:15 AM 53.6 °F 44.6 °F 72% 30.05 in 10.0 mi Calm Calm - N/A   Clear
8:35 AM 57.2 °F 46.4 °F 67% 30.06 in 10.0 mi West 3.5 mph - N/A   Clear
8:55 AM 59.0 °F 46.4 °F 63% 30.07 in 10.0 mi WSW 3.5 mph - N/A   Clear
9:15 AM 62.6 °F 46.4 °F 55% 30.08 in 10.0 mi WNW 5.8 mph - N/A   Clear
9:35 AM 64.4 °F 46.4 °F 52% 30.09 in 10.0 mi WNW 10.4 mph - N/A   Clear
9:55 AM 66.2 °F 48.2 °F 52% 30.10 in 10.0 mi NW 10.4 mph - N/A   Clear
10:15 AM 68.0 °F 46.4 °F 46% 30.10 in 10.0 mi NW 11.5 mph 17.3 mph N/A   Clear
10:35 AM 69.8 °F 48.2 °F 46% 30.11 in 10.0 mi NNW 10.4 mph 16.1 mph N/A   Clear
10:55 AM 69.8 °F 46.4 °F 43% 30.11 in 10.0 mi NNW 10.4 mph - N/A   Clear
11:15 AM 71.6 °F 46.4 °F 41% 30.12 in 10.0 mi NNW 13.8 mph - N/A   Clear
11:35 AM 73.4 °F 46.4 °F 38% 30.12 in 10.0 mi NNW 12.7 mph 17.3 mph N/A   Clear
11:55 AM 73.4 °F 44.6 °F 36% 30.13 in 10.0 mi North 15.0 mph 19.6 mph N/A   Clear
12:15 PM 75.2 °F 46.4 °F 36% 30.13 in 10.0 mi NNW 13.8 mph 18.4 mph N/A   Clear
12:35 PM 77.0 °F 44.6 °F 32% 30.12 in 10.0 mi NNW 10.4 mph 16.1 mph N/A   Clear
12:55 PM 77.0 °F 42.8 °F 29% 30.12 in 10.0 mi North 12.7 mph 18.4 mph N/A   Clear
1:15 PM 77.0 °F 42.8 °F 29% 30.12 in 10.0 mi NNW 10.4 mph 17.3 mph N/A   Clear
1:35 PM 78.8 °F 41.0 °F 26% 30.11 in 10.0 mi North 18.4 mph 23.0 mph N/A   Clear
1:55 PM 78.8 °F 41.0 °F 26% 30.10 in 10.0 mi North 15.0 mph - N/A   Clear
2:35 PM 78.8 °F 41.0 °F 26% 30.10 in 10.0 mi North 13.8 mph - N/A   Clear
2:55 PM 78.8 °F 41.0 °F 26% 30.10 in 10.0 mi NNW 13.8 mph 19.6 mph N/A   Clear
3:15 PM 78.8 °F 42.8 °F 28% 30.10 in 10.0 mi North 5.8 mph 16.1 mph N/A   Clear
3:35 PM 78.8 °F 41.0 °F 26% 30.10 in 10.0 mi North 10.4 mph - N/A   Clear
3:55 PM 78.8 °F 41.0 °F 26% 30.10 in 10.0 mi North 6.9 mph - N/A   Clear
4:15 PM 78.8 °F 39.2 °F 24% 30.09 in 10.0 mi North 11.5 mph 19.6 mph N/A   Clear
4:35 PM 78.8 °F 41.0 °F 26% 30.09 in 10.0 mi NNW 12.7 mph - N/A   Clear
4:55 PM 78.8 °F 41.0 °F 26% 30.08 in 10.0 mi North 10.4 mph 16.1 mph N/A   Clear
5:15 PM 78.8 °F 41.0 °F 26% 30.08 in 10.0 mi North 6.9 mph - N/A   Clear
5:35 PM 77.0 °F 42.8 °F 29% 30.08 in 10.0 mi North 6.9 mph - N/A   Clear
5:55 PM 77.0 °F 42.8 °F 29% 30.08 in 10.0 mi North 5.8 mph - N/A   Clear
6:15 PM 75.2 °F 42.8 °F 31% 30.08 in 10.0 mi North 3.5 mph - N/A   Clear
6:35 PM 73.4 °F 44.6 °F 36% 30.08 in 10.0 mi Calm Calm - N/A   Clear
6:55 PM 71.6 °F 46.4 °F 41% 30.08 in 10.0 mi Calm Calm - N/A   Clear
7:15 PM 69.8 °F 46.4 °F 43% 30.08 in 10.0 mi Calm Calm - N/A   Clear
7:35 PM 64.4 °F 46.4 °F 52% 30.09 in 10.0 mi Calm Calm - N/A   Clear
7:55 PM 64.4 °F 48.2 °F 56% 30.09 in 10.0 mi Calm Calm - N/A   Clear
8:15 PM 62.6 °F 50.0 °F 63% 30.09 in 4.0 mi Calm Calm - N/A   Haze
8:35 PM 60.8 °F 50.0 °F 68% 30.10 in 2.5 mi Calm Calm - N/A   Haze
8:55 PM 59.0 °F 50.0 °F 72% 30.11 in 10.0 mi Calm Calm - N/A   Clear
9:15 PM 59.0 °F 50.0 °F 72% 30.11 in 5.0 mi Calm Calm - N/A   Haze
9:35 PM 59.0 °F 50.0 °F 72% 30.11 in 10.0 mi Calm Calm - N/A   Clear
9:55 PM 55.4 °F 50.0 °F 82% 30.11 in 10.0 mi Calm Calm - N/A   Clear
10:15 PM 55.4 °F 50.0 °F 82% 30.11 in 2.0 mi Calm Calm - N/A   Haze
10:35 PM 55.4 °F 50.0 °F 82% 30.12 in 10.0 mi Calm Calm - N/A   Clear
10:55 PM 53.6 °F 50.0 °F 88% 30.12 in 10.0 mi Calm Calm - N/A   Clear
11:15 PM 53.6 °F 48.2 °F 82% 30.12 in 10.0 mi Calm Calm - N/A   Clear
11:35 PM 53.6 °F 50.0 °F 88% 30.12 in 10.0 mi ENE 3.5 mph - N/A   Clear
11:55 PM 53.6 °F 48.2 °F 82% 30.13 in 10.0 mi Calm Calm - N/A   Clear